Location: Unspecified
(0.0000°N, 0.0000°E)
Time: 14:37:35
(UTC+00:00)

STARLINK-35385 - Pass Details

Date: 20 February 2026
Orbit: 474 x 476 km, 53.2° (Epoch: 14 March)

Event Time Altitude Azimuth Distance (km) Brightness Sun altitude
Rises 19:30:11 0° 204° (SSW) 2,517 6.5 -18.8°
Reaches altitude 10° 19:32:25 10° 198° (SSW) 1,637 5.4 -19.3°
Enters shadow 19:35:28 42° 148° (SSE) 684 2.9 -20.1°
